Regional Weather Roundup
Issued by NWS Albany, NY

Home | Current Version | Previous Version | Graphics & Text | Print | Product List | Glossary On
Versions: 1 2 3 4 5 6 7 8 9 10 11 12 13 14 15 16 17 18 19 20 21 22 23 24 25 26 27 28 29 30 31 32 33 34 35 36 37 38 39 40 41 42 43 44 45 46 47 48 49 50
000
ASUS41 KALY 230910
RWRALY

NEW YORK STATE HOURLY WEATHER ROUNDUP
NATIONAL WEATHER SERVICE ALBANY NY
400 AM EST SUN NOV 23 2014

NOTE: "FAIR" INDICATES FEW OR NO CLOUDS BELOW 12,000 FEET WITH NO
SIGNIFICANT WEATHER AND/OR NO OBSTRUCTIONS TO VISIBILITY.

NYZ032-033-038>043-046>054-057>066-NYZ062>081-231000-
EAST


CITY           SKY/WX    TMP DP  RH WIND       PRES   REMARKS
ALBANY         LGT RAIN  38  31  76 S7        30.08F WCI  33
GLENS FALLS    CLOUDY    35  32  88 S7        30.06S FOG     WCI  29
POUGHKEEPSIE   CLOUDY    43  20  39 VRB5      30.14F
NEWBURGH       MOCLDY    39  21  48 SW6       30.15S WCI  35
MONTGOMERY     CLOUDY    39  21  48 SW8       30.13S WCI  33
WHITE PLAINS   CLOUDY    42  19  39 VRB6      30.15S
ISLIP          CLOUDY    44  26  49 SW9       30.16S
NEW YORK CITY  CLOUDY    44  22  41 SW12      30.17F
CENTRAL PARK   CLOUDY    44  22  41 VRB6      30.19S
$$

NYZ005>009-017-018-044>046-055-056-231000-
CENTRAL


CITY           SKY/WX    TMP DP  RH WIND       PRES   REMARKS
FULTON         LGT RAIN  43  39  86 S6        30.01S
SYRACUSE       LGT RAIN  48  41  76 SW10      30.02S
ROME           LGT RAIN  39  38  96 E7        30.05S WCI  34
ELMIRA         CLOUDY    43  36  76 CALM      30.06F
BINGHAMTON     LGT RAIN  40  30  67 SW7       30.06S
MONTICELLO     CLOUDY    36  30  80 CALM      30.12S
$$

NYZ026>034-041>043-231000-
NORTH


CITY           SKY/WX    TMP DP  RH WIND       PRES   REMARKS
WATERTOWN      CLOUDY    45  40  82 SW7       29.98S
FORT DRUM      NOT AVBL
MASSENA        CLOUDY    41  41 100 SW12      29.96S FOG
SARANAC LAKE   LGT SNOW  38  37  97 SW8       29.92S FOG     WCI  32
PLATTSBURGH    LGT RAIN  38  35  89 S5        29.95S WCI  34
$$

NYZ001>004-010>016-019>021-231000-
WEST


CITY           SKY/WX    TMP DP  RH WIND       PRES   REMARKS
NIAGARA FALLS  CLOUDY    46  40  79 SW15      29.98S
BUFFALO        MOCLDY    44  37  76 SW10      29.98S
DUNKIRK        CLOUDY    45  35  68 S12G24    30.00F
JAMESTOWN      CLOUDY    43  34  70 S8        30.03S
WELLSVILLE     CLOUDY    45  33  63 SW12      30.04S
ROCHESTER      CLOUDY    45  40  82 S6        29.99F
PENN YAN       CLOUDY    48  38  68 SW14      30.02F
$$

             KEY
       WCI = WIND CHILL INDEX
       VSB = VISIBILITY
       HX  = HEAT INDEX
$$


USA.gov is the U.S. government's official web portal to all federal, state and local government web resources and services.